Tracking 29606 objects as of 18-Sep-2024
HD Live streaming from Space Station
objects crossing your sky now

COSMOS 1408 DEB

Track COSMOS 1408 DEB now!
10-day predictions


NORAD ID: 50058
Int'l Code: 1982-092SW
Perigee: 432.6 km
Apogee: 467.2 km
Inclination: 82.6 °
Period: 93.4 minutes
Semi major axis: 6820 km
RCS: Unknown
Launch date: September 16, 1982
Source: Commonwealth of Independent States (former USSR) (CIS)
Launch site: PLESETSK MISSILE AND SPACE COMPLEX (PKMTR)

Note: This is SATELLITE DEBRIS
Your satellite tracking list
Your tracking list is empty




NASA's NSSDC Master Catalog

Two Line Element Set (TLE):
1 50058U 82092SW  24261.79843525  .00027858  00000-0  66298-3 0  9991
2 50058  82.6199 172.7945 0025424 318.3998  41.5313 15.41132368158104
Source of the keplerian elements: AFSPC